Regional Weather Roundup
Issued by NWS Cleveland, OH

Home | Current Version | Previous Version | Text Only | Print | Product List | Glossary Off
Versions: 1 2 3 4 5 6 7 8 9 10 11 12 13 14 15 16 17 18 19 20 21 22 23 24 25 26 27 28 29 30 31 32 33 34 35 36 37 38 39 40 41 42 43 44 45 46 47 48 49 50

000
ASUS41 KCLE 241810
RWRCLE
OHIO REGIONAL WEATHER ROUNDUP
NATIONAL WEATHER SERVICE CLEVELAND, OH
100 PM EST WED DEC 24 2014

NOTE: "FAIR" INDICATES FEW OR NO CLOUDS BELOW 12,000 FEET WITH NO
SIGNIFICANT WEATHER AND/OR OBSTRUCTIONS TO VISIBILITY.

OHZ001>008-015>018-024>027-034-035-043-044-241900-
   NORTHWEST OHIO

CITY           SKY/WX    TMP DP  RH WIND       PRES   REMARKS
DEFIANCE       RAIN      44  42  93 NW13      29.40F FOG
FINDLAY        LGT RAIN  56  53  90 S12       29.37F FOG
TOLEDO EXPRESS RAIN      52  51  97 S6        29.39F FOG
TOLEDO EXEC    CLOUDY    55  52  89 S13       29.40F
LIMA           CLOUDY    56  53  90 S9        29.38F FOG
$$

OHZ009>014-019>023-028>033-038-089-241900-
   NORTHEAST OHIO

CITY           SKY/WX    TMP DP  RH WIND       PRES   REMARKS
CLE-HOPKINS    CLOUDY    56  53  90 S13       29.46F
CLE-LAKEFRONT  CLOUDY    58  53  84 SE15G25   29.42F
CUY CO. ARPT   CLOUDY    57  55  94 S14       29.47F
LORAIN-ELYRIA  CLOUDY    55  53  93 S13       29.43F
ASHTABULA      CLOUDY    54  50  86 S9        29.49F
AKRON-CANTON   CLOUDY    56  52  86 S10       29.48F
WOOSTER        CLOUDY    54  52  93 S8        29.45F
MANSFIELD      CLOUDY    54  54 100 S12       29.44F FOG
YOUNGSTOWN     CLOUDY    54  51  90 SE9       29.50F
$$

OHZ042-051>053-060>062-070>072-077>081-241900-
  SOUTHWEST OHIO

CITY           SKY/WX    TMP DP  RH WIND       PRES   REMARKS
CINC-COVINGTON CLOUDY    56  52  86 S9        29.40F FOG
CINC-LUNKEN    CLOUDY    55  54  96 CALM      29.42F
HAMILTON       CLOUDY    58  55  90 VRB6      29.41F
DAYTON         CLOUDY    56  54  93 S14       29.40F
WRIGHT-PAT AFB DRIZZLE   56  56  99 S10       29.40F
DAYTON GENERAL CLOUDY    55  54  96 S9        29.40F
WILMINGTON     CLOUDY    55  53  93 S12       29.42F
$$

OHZ036-037-039>041-045>050-054>059-063>069-073>076-082>088-241900-
  CENTRAL AND SOUTHEAST OHIO

CITY           SKY/WX    TMP DP  RH WIND       PRES   REMARKS
COLUMBUS       CLOUDY    56  52  86 SE8       29.44F
OSU AIRPORT    CLOUDY    56  54  93 S7        29.43F FOG
BOLTON FIELD   CLOUDY    55  55 100 MISG      29.44F FOG
RICKENBACK AFB CLOUDY    56  53  92 SE8       29.43F
NEWARK         CLOUDY    57  53  86 S5        29.45F
MARION         CLOUDY    56  53  90 S10       29.42F
LANCASTER      CLOUDY    58  54  86 SE9       29.45F
ZANESVILLE     CLOUDY    55  51  86 S7        29.47F
NEW PHILLY     CLOUDY    57  53  86 SE5       29.48F
$$



USA.gov is the U.S. government's official web portal to all federal, state and local government web resources and services.